Location: Hurstbourne Priors
(51.2000°N, 1.3667°W)
Time: 17:36:53
(UTC+00:00)

Cosmos 1607 - Pass Details

Date: 09 April 2020
Orbit: 917 x 986 km, 65.0° (Epoch: 01 June)

Event Time Altitude Azimuth Distance (km) Brightness Sun altitude
Exits shadow 23:12:02 85° 27° (NNE) 948 3.8 -29.6°
Drops below altitude 10° 23:18:07 10° 41° (NE) 2,682 6.7 -29.8°
Sets 23:20:42 0° 42° (NE) 3,641 7.4 -29.9°
